2023/01/28 00:00:00,95.3,-4.5
2023/01/28 00:10:00,95.4,-4.6
2023/01/28 00:20:00,95.5,-4.6
2023/01/28 00:30:00,96.2,-4.6
2023/01/28 00:40:00,96.7,-4.4
2023/01/28 00:50:00,97.2,-4.7
2023/01/28 01:00:00,98.0,-4.8
2023/01/28 01:10:00,98.2,-4.5
2023/01/28 01:20:00,98.2,-4.6
2023/01/28 01:30:00,98.2,-4.5
2023/01/28 01:40:00,98.6,-4.5
2023/01/28 01:50:00,99.2,-4.5
2023/01/28 02:00:00,100.1,-4.4
2023/01/28 02:10:00,100.5,-4.5
2023/01/28 02:20:00,101.1,-4.4
2023/01/28 02:30:00,101.5,-4.4
2023/01/28 02:40:00,101.3,-4.2
2023/01/28 02:50:00,101.5,-4.8
2023/01/28 03:00:00,101.5,-4.3
2023/01/28 03:10:00,101.2,-4.6
2023/01/28 03:20:00,101.1,-4.6
2023/01/28 03:30:00,101.2,-4.9
2023/01/28 03:40:00,102.7,-4.5
2023/01/28 03:50:00,104.3,-4.6
2023/01/28 04:00:00,105.1,-4.6
2023/01/28 04:10:00,106.1,-4.7
2023/01/28 04:20:00,107.1,-4.6
2023/01/28 04:30:00,108.1,-4.5
2023/01/28 04:40:00,109.0,-4.6
2023/01/28 04:50:00,110.2,-4.4
2023/01/28 05:00:00,110.8,-4.5
2023/01/28 05:10:00,110.9,-4.4
2023/01/28 05:20:00,111.1,-4.5
2023/01/28 05:30:00,111.7,-4.4
2023/01/28 05:40:00,112.4,-4.3
2023/01/28 05:50:00,113.1,-4.6
2023/01/28 06:00:00,113.7,-4.5
2023/01/28 06:10:00,114.6,-4.5
2023/01/28 06:20:00,114.7,-4.3
2023/01/28 06:30:00,115.0,-4.6
2023/01/28 06:40:00,115.3,-4.4
2023/01/28 06:50:00,116.0,-4.5
2023/01/28 07:00:00,117.1,-4.3
2023/01/28 07:10:00,117.9,-4.5
2023/01/28 07:20:00,118.9,-4.2
2023/01/28 07:30:00,119.5,-4.2
2023/01/28 07:40:00,119.8,-4.0
2023/01/28 07:50:00,120.1,-4.1
2023/01/28 08:00:00,119.8,-3.8
2023/01/28 08:10:00,119.5,-4.2
2023/01/28 08:20:00,119.3,-3.4
2023/01/28 08:30:00,119.0,-3.1
2023/01/28 08:40:00,118.9,-3.8
2023/01/28 08:50:00,119.0,-3.6
2023/01/28 09:00:00,119.3,-3.2
2023/01/28 09:10:00,119.5,-3.1
2023/01/28 09:20:00,119.2,-2.7
2023/01/28 09:30:00,119.1,-2.5
2023/01/28 09:40:00,118.6,-1.9
2023/01/28 09:50:00,118.6,-1.5
2023/01/28 10:00:00,118.7,-1.4
2023/01/28 10:10:00,118.4,-0.7
2023/01/28 10:20:00,118.0, 0.0
2023/01/28 10:30:00,117.8, 0.4
2023/01/28 10:40:00,117.8, 0.5
2023/01/28 10:50:00,117.5, 0.4
2023/01/28 11:00:00,117.6,-1.4
2023/01/28 11:10:00,117.7,-0.1
2023/01/28 11:20:00,117.5, 0.4
2023/01/28 11:30:00,117.4, 1.4
2023/01/28 11:40:00,117.4, 0.2
2023/01/28 11:50:00,117.5,-0.9
2023/01/28 12:00:00,117.4,-1.2
2023/01/28 12:10:00,117.3,-0.2
2023/01/28 12:20:00,117.0, 0.7
2023/01/28 12:30:00,117.1, 0.1
2023/01/28 12:40:00,116.8, 0.1
2023/01/28 12:50:00,116.9,-0.4
2023/01/28 13:00:00,117.1,-0.6
2023/01/28 13:10:00,117.1,-0.1
2023/01/28 13:20:00,117.1,-1.0
2023/01/28 13:30:00,117.1,-1.5
2023/01/28 13:40:00,116.9,-1.9
2023/01/28 13:50:00,116.7,-1.6
2023/01/28 14:00:00,116.9,-2.0
2023/01/28 14:10:00,117.1,-2.0
2023/01/28 14:20:00,116.9,-0.9
2023/01/28 14:30:00,116.8,-2.4
2023/01/28 14:40:00,116.5,-2.4
2023/01/28 16:50:00,45.7,-4.2
2023/01/28 17:00:00,114.0,-4.3
2023/01/28 17:10:00,113.9,-4.5
2023/01/28 17:20:00,113.8,-4.7
2023/01/28 17:30:00,113.7,-4.9
2023/01/28 17:40:00,113.6,-5.0
2023/01/28 17:50:00,113.6,-4.9
2023/01/28 18:00:00,113.5,-5.1
2023/01/28 18:10:00,113.2,-5.2
2023/01/28 18:20:00,113.2,-5.2
2023/01/28 18:30:00,113.3,-5.5
2023/01/28 18:40:00,113.2,-5.0
2023/01/28 18:50:00,112.9,-5.4
2023/01/28 19:00:00,112.8,-5.4
2023/01/28 19:10:00,112.7,-5.6
2023/01/28 19:20:00,112.5,-5.4
2023/01/28 19:30:00,112.6,-5.5
2023/01/28 19:40:00,112.7,-5.6
2023/01/28 19:50:00,112.9,-5.6
2023/01/28 20:00:00,113.4,-5.6
2023/01/28 20:10:00,113.6,-5.7
2023/01/28 20:20:00,113.3,-5.6
2023/01/28 20:30:00,113.2,-5.6
2023/01/28 20:40:00,113.1,-5.5
2023/01/28 20:50:00,113.0,-5.5
2023/01/28 21:00:00,112.8,-5.5
2023/01/28 21:10:00,112.8,-5.6
2023/01/28 21:20:00,112.5,-5.7
2023/01/28 21:30:00,112.4,-5.6
2023/01/28 21:40:00,112.3,-5.7
2023/01/28 21:50:00,112.3,-4.8
2023/01/28 22:00:00,112.2,-6.1
2023/01/28 22:10:00,112.3,-6.3
2023/01/28 22:20:00,112.1,-6.1
2023/01/28 22:30:00,111.8,-5.9
2023/01/28 22:40:00,111.8,-6.1
2023/01/28 22:50:00,111.6,-6.1
2023/01/28 23:00:00,111.6,-6.6
2023/01/28 23:10:00,111.7,-6.6
2023/01/28 23:20:00,111.5,-7.3
2023/01/28 23:30:00,111.5,-7.3
2023/01/28 23:40:00,111.4,-6.6
2023/01/28 23:50:00,111.2,-6.7
